Regional Weather Roundup
Issued by NWS Green Bay, WI

Home | Current Version | Previous Version | Graphics & Text | Print | Product List | Glossary Off
Versions: 1 2 3 4 5 6 7 8 9 10 11 12 13 14 15 16 17 18 19 20 21 22 23 24 25 26 27 28 29 30 31 32 33 34 35 36 37 38 39 40 41 42 43 44 45 46 47 48 49 50

028
ASUS43 KGRB 090200
RWRGRB

NORTH-CENTRAL AND NORTHEAST WISCONSIN REGIONAL WEATHER ROUNDUP
NATIONAL WEATHER SERVICE GREEN BAY WI
800 PM CST MON FEB 08 2016

WIZ005-009-010>012-018-019-090300-
NORTH CENTRAL WISCONSIN

CITY           SKY/WX    TMP DP  RH WIND       PRES   REMARKS
IRONWOOD       CLOUDY    12  10  92 NW13      29.79S WCI  -3
MANITOWISH WTR NOT AVBL
ARBOR VITAE    NOT AVBL
EAGLE RIVER    NOT AVBL
LAND O LAKES   NOT AVBL
RHINELANDER    LGT SNOW  13   6  74 NW7       29.75S WCI   3
PHILLIPS       NOT AVBL
ANTIGO         NOT AVBL
TOMAHAWK       NOT AVBL
MERRILL        NOT AVBL
$$

WIZ013-073-090300-
NORTHEAST WISCONSIN

CITY           SKY/WX    TMP DP  RH WIND       PRES   REMARKS
IRON MOUNTAIN  LGT SNOW  16   9  74 N12       29.72S WCI   3
MARINETTE      CLOUDY    19  12  73 N8        29.74F WCI   9
$$

WIZ017-030-035>037-045-090300-
CENTRAL WISCONSIN

CITY           SKY/WX    TMP DP  RH WIND       PRES   REMARKS
MEDFORD        NOT AVBL
WAUSAU         LGT SNOW  16  10  77 N10G22    29.76S WCI   4
MOSINEE        LGT SNOW  16  12  86 NW15G21   29.78R WCI   1
MARSHFIELD     LGT SNOW  13   7  77 NW20      29.79R WCI  -5
WISC RAPIDS    LGT SNOW  15   8  73 NW14      29.81S WCI   0
STEVENS POINT  NOT AVBL
WAUPACA        NOT AVBL
SHAWANO        NOT AVBL
CLINTONVILLE   NOT AVBL
WAUTOMA        NOT AVBL
$$

WIZ038-039-048-051-090300-
FOX VALLEY

CITY           SKY/WX    TMP DP  RH WIND       PRES   REMARKS
NWS GREEN BAY  LGT SNOW  24  20  84 N13       29.74S FOG
APPLETON       LGT SNOW  23  16  74 NW12G17   29.72R
OSHKOSH        LGT SNOW  20  15  81 W13       29.73F WCI   7
FOND DU LAC    LGT SNOW  20  15  81 NW18      29.74S WCI   5
$$

WIZ022-050-052-090300-
EAST CENTRAL WISCONSIN

CITY           SKY/WX    TMP DP  RH WIND       PRES   REMARKS
EPHRAIM        NOT AVBL
STURGEON BAY   CLOUDY    19  14  79 NW16G22   29.75S WCI   5
MANITOWOC      LGT SNOW  25  23  93 N12       29.73S FOG
SHEBOYGAN      LGT SNOW  26  22  84 NW8       29.71F FOG
$$

LMZ563-521-522-541>543-090300-
LAKESHORE

STATION/POSITION TIME  TEMP    WIND        PRES    VSBY  WAVE
                       AIR SEA DIR/SP/G                  HT/PER
                 (UTC) (F)     (DEG/KT/KT) (MB)    (MI)  (FT/S)
SHEBOYGAN LKSHOR 0100   27     320/ 11/ 14 1007.3R
KEWAUNEE LKSHORE 0100   25     350/  8/ 15 1006.0R
ALGOMA MARINA    0111          350/ 14/ 19   N/A
NORTHPORT PIER   0102   23     340/ 21/ 25 1006.8S
CHAMBERS ISLAND  0100   22     310/ 21/ 26 1007.1S
MENOMINEE LKSHOR 0100   21     320/ 17     1006.4R
$$




USA.gov is the U.S. government's official web portal to all federal, state and local government web resources and services.